owner,sensor,date,latitude,longitude,vertical_datum,wind_speed,wind_to_direction,wind_speed_of_gust,qcFlag 
WAVCIS,ioos:station:WAVCIS:CSI09:1,2008-09-01T00:00:00Z,29.1015,-89.9782,0.0,14.68,34.0,,'11111222,11111222,99999999' 
WAVCIS,ioos:station:WAVCIS:CSI09:1,2008-09-01T01:00:00Z,29.1015,-89.9782,0.0,14.42,19.0,,'11111222,11111222,99999999' 
WAVCIS,ioos:station:WAVCIS:CSI09:1,2008-09-01T02:00:00Z,29.1015,-89.9782,0.0,15.63,17.0,,'11111222,11111222,99999999' 
WAVCIS,ioos:station:WAVCIS:CSI09:1,2008-09-01T03:00:00Z,29.1015,-89.9782,0.0,16.84,34.0,,'11111222,11111222,99999999' 
WAVCIS,ioos:station:WAVCIS:CSI09:1,2008-09-01T04:00:00Z,29.1015,-89.9782,0.0,19.02,32.0,,'11111222,11111222,99999999' 
WAVCIS,ioos:station:WAVCIS:CSI09:1,2008-09-01T05:00:00Z,29.1015,-89.9782,0.0,21.18,16.0,,'11111222,11111222,99999999' 
WAVCIS,ioos:station:WAVCIS:CSI09:1,2008-09-01T06:00:00Z,29.1015,-89.9782,0.0,22.28,32.0,,'11111222,11111222,99999999' 
WAVCIS,ioos:station:WAVCIS:CSI09:1,2008-09-01T07:00:00Z,29.1015,-89.9782,0.0,25.06,30.0,,'11111222,11111222,99999999' 
WAVCIS,ioos:station:WAVCIS:CSI09:1,2008-09-01T08:00:00Z,29.1015,-89.9782,0.0,27.78,36.0,,'11111222,11111222,99999999' 
WAVCIS,ioos:station:WAVCIS:CSI09:1,2008-09-01T09:00:00Z,29.1015,-89.9782,0.0,34.09,32.0,,'11111222,11111222,99999999' 
WAVCIS,ioos:station:WAVCIS:CSI09:1,2008-09-01T10:00:00Z,29.1015,-89.9782,0.0,37.75,38.0,,'11111222,11111222,99999999' 
WAVCIS,ioos:station:WAVCIS:CSI09:1,2008-09-01T11:00:00Z,29.1015,-89.9782,0.0,38.22,60.0,,'11111222,11111222,99999999' 
WAVCIS,ioos:station:WAVCIS:CSI09:1,2008-09-01T12:00:00Z,29.1015,-89.9782,0.0,34.8,87.0,,'11111222,11111222,99999999' 
WAVCIS,ioos:station:WAVCIS:CSI09:1,2008-09-01T13:00:00Z,29.1015,-89.9782,0.0,32.96,129.0,,'11111222,11111222,99999999' 
WAVCIS,ioos:station:WAVCIS:CSI09:1,2008-09-01T14:00:00Z,29.1015,-89.9782,0.0,30.48,154.0,,'11111222,11111222,99999999' 
WAVCIS,ioos:station:WAVCIS:CSI09:1,2008-09-01T15:00:00Z,29.1015,-89.9782,0.0,31.81,167.0,,'11111222,11111222,99999999' 
WAVCIS,ioos:station:WAVCIS:CSI09:1,2008-09-01T16:00:00Z,29.1015,-89.9782,0.0,28.37,177.0,,'11111222,11111222,99999999' 
WAVCIS,ioos:station:WAVCIS:CSI09:1,2008-09-01T17:00:00Z,29.1015,-89.9782,0.0,25.3,177.0,,'11111222,11111222,99999999' 
WAVCIS,ioos:station:WAVCIS:CSI09:1,2008-09-01T18:00:00Z,29.1015,-89.9782,0.0,20.73,177.0,,'11111222,11111222,99999999' 
WAVCIS,ioos:station:WAVCIS:CSI09:1,2008-09-01T19:00:00Z,29.1015,-89.9782,0.0,18.06,174.0,,'11111222,11111222,99999999' 
WAVCIS,ioos:station:WAVCIS:CSI09:1,2008-09-01T20:00:00Z,29.1015,-89.9782,0.0,19.35,177.0,,'11111222,11111222,99999999' 
WAVCIS,ioos:station:WAVCIS:CSI09:1,2008-09-01T21:00:00Z,29.1015,-89.9782,0.0,15.25,181.0,,'11111222,11111222,99999999' 
WAVCIS,ioos:station:WAVCIS:CSI09:1,2008-09-01T22:00:00Z,29.1015,-89.9782,0.0,15.52,169.0,,'11111222,11111222,99999999' 
WAVCIS,ioos:station:WAVCIS:CSI09:1,2008-09-01T23:00:00Z,29.1015,-89.9782,0.0,13.73,176.0,,'11111222,11111222,99999999' 
WAVCIS,ioos:station:WAVCIS:CSI09:1,2008-09-02T00:00:00Z,29.1015,-89.9782,0.0,13.89,166.0,,'11111222,11111222,99999999' 
WAVCIS,ioos:station:WAVCIS:CSI09:1,2008-09-02T01:00:00Z,29.1015,-89.9782,0.0,13.41,159.0,,'11111222,11111222,99999999' 
WAVCIS,ioos:station:WAVCIS:CSI09:1,2008-09-02T02:00:00Z,29.1015,-89.9782,0.0,12.57,163.0,,'11111222,11111222,99999999' 
WAVCIS,ioos:station:WAVCIS:CSI09:1,2008-09-02T03:00:00Z,29.1015,-89.9782,0.0,11.68,162.0,,'11111222,11111222,99999999' 
WAVCIS,ioos:station:WAVCIS:CSI09:1,2008-09-02T04:00:00Z,29.1015,-89.9782,0.0,12.29,154.0,,'11111222,11111222,99999999' 
WAVCIS,ioos:station:WAVCIS:CSI09:1,2008-09-02T05:00:00Z,29.1015,-89.9782,0.0,11.69,153.0,,'11111222,11111222,99999999' 
WAVCIS,ioos:station:WAVCIS:CSI09:1,2008-09-02T06:00:00Z,29.1015,-89.9782,0.0,10.47,155.0,,'11111222,11111222,99999999' 
WAVCIS,ioos:station:WAVCIS:CSI09:1,2008-09-02T07:00:00Z,29.1015,-89.9782,0.0,10.53,157.0,,'11111222,11111222,99999999' 
WAVCIS,ioos:station:WAVCIS:CSI09:1,2008-09-02T08:00:00Z,29.1015,-89.9782,0.0,8.29,156.0,,'11111222,11111222,99999999' 
WAVCIS,ioos:station:WAVCIS:CSI09:1,2008-09-02T09:00:00Z,29.1015,-89.9782,0.0,7.37,169.0,,'11111222,11111222,99999999' 
WAVCIS,ioos:station:WAVCIS:CSI09:1,2008-09-02T10:00:00Z,29.1015,-89.9782,0.0,6.5,179.0,,'11111222,11111222,99999999' 
WAVCIS,ioos:station:WAVCIS:CSI09:1,2008-09-02T11:00:00Z,29.1015,-89.9782,0.0,10.58,148.0,,'11111222,11111222,99999999' 
WAVCIS,ioos:station:WAVCIS:CSI09:1,2008-09-02T12:00:00Z,29.1015,-89.9782,0.0,11.78,160.0,,'11111222,11111222,99999999' 
WAVCIS,ioos:station:WAVCIS:CSI09:1,2008-09-02T13:00:00Z,29.1015,-89.9782,0.0,9.8,164.0,,'11111222,11111222,99999999' 
WAVCIS,ioos:station:WAVCIS:CSI09:1,2008-09-02T15:00:00Z,29.1015,-89.9782,0.0,7.53,147.0,,'11111222,11111222,99999999' 
WAVCIS,ioos:station:WAVCIS:CSI09:1,2008-09-02T16:00:00Z,29.1015,-89.9782,0.0,7.52,146.0,,'11111222,11111222,99999999' 
WAVCIS,ioos:station:WAVCIS:CSI09:1,2008-09-02T17:00:00Z,29.1015,-89.9782,0.0,8.44,152.0,,'11111222,11111222,99999999' 
WAVCIS,ioos:station:WAVCIS:CSI09:1,2008-09-02T18:00:00Z,29.1015,-89.9782,0.0,7.64,147.0,,'11111222,11111222,99999999' 
WAVCIS,ioos:station:WAVCIS:CSI09:1,2008-09-02T19:00:00Z,29.1015,-89.9782,0.0,7.93,144.0,,'11111222,11111222,99999999' 
WAVCIS,ioos:station:WAVCIS:CSI09:1,2008-09-02T20:00:00Z,29.1015,-89.9782,0.0,8.95,145.0,,'11111222,11111222,99999999' 
WAVCIS,ioos:station:WAVCIS:CSI09:1,2008-09-02T21:00:00Z,29.1015,-89.9782,0.0,7.37,148.0,,'11111222,11111222,99999999' 
WAVCIS,ioos:station:WAVCIS:CSI09:1,2008-09-02T22:00:00Z,29.1015,-89.9782,0.0,8.47,143.0,,'11111222,11111222,99999999' 
WAVCIS,ioos:station:WAVCIS:CSI09:1,2008-09-02T23:00:00Z,29.1015,-89.9782,0.0,8.3,148.0,,'11111222,11111222,99999999' 
WAVCIS,ioos:station:WAVCIS:CSI09:1,2008-09-03T00:00:00Z,29.1015,-89.9782,0.0,8.11,143.0,,'11111222,11111222,99999999' 
WAVCIS,ioos:station:WAVCIS:CSI09:1,2008-09-03T01:00:00Z,29.1015,-89.9782,0.0,7.74,142.0,,'11111222,11111222,99999999' 
WAVCIS,ioos:station:WAVCIS:CSI09:1,2008-09-03T02:00:00Z,29.1015,-89.9782,0.0,7.41,142.0,,'11111222,11111222,99999999' 
WAVCIS,ioos:station:WAVCIS:CSI09:1,2008-09-03T03:00:00Z,29.1015,-89.9782,0.0,8.89,136.0,,'11111222,11111222,99999999' 
WAVCIS,ioos:station:WAVCIS:CSI09:1,2008-09-03T04:00:00Z,29.1015,-89.9782,0.0,8.51,136.0,,'11111222,11111222,99999999' 
WAVCIS,ioos:station:WAVCIS:CSI09:1,2008-09-03T05:00:00Z,29.1015,-89.9782,0.0,9.77,137.0,,'11111222,11111222,99999999' 
WAVCIS,ioos:station:WAVCIS:CSI09:1,2008-09-03T06:00:00Z,29.1015,-89.9782,0.0,10.71,137.0,,'11111222,11111222,99999999' 
WAVCIS,ioos:station:WAVCIS:CSI09:1,2008-09-03T07:00:00Z,29.1015,-89.9782,0.0,8.78,137.0,,'11111222,11111222,99999999' 
WAVCIS,ioos:station:WAVCIS:CSI09:1,2008-09-03T08:00:00Z,29.1015,-89.9782,0.0,10.31,141.0,,'11111222,11111222,99999999' 
WAVCIS,ioos:station:WAVCIS:CSI09:1,2008-09-03T09:00:00Z,29.1015,-89.9782,0.0,9.49,144.0,,'11111222,11111222,99999999' 
WAVCIS,ioos:station:WAVCIS:CSI09:1,2008-09-03T10:00:00Z,29.1015,-89.9782,0.0,9.35,149.0,,'11111222,11111222,99999999' 
WAVCIS,ioos:station:WAVCIS:CSI09:1,2008-09-03T11:00:00Z,29.1015,-89.9782,0.0,9.1,147.0,,'11111222,11111222,99999999' 
WAVCIS,ioos:station:WAVCIS:CSI09:1,2008-09-03T12:00:00Z,29.1015,-89.9782,0.0,8.75,148.0,,'11111222,11111222,99999999' 
WAVCIS,ioos:station:WAVCIS:CSI09:1,2008-09-03T13:00:00Z,29.1015,-89.9782,0.0,8.28,148.0,,'11111222,11111222,99999999' 
WAVCIS,ioos:station:WAVCIS:CSI09:1,2008-09-03T14:00:00Z,29.1015,-89.9782,0.0,8.42,143.0,,'11111222,11111222,99999999' 
WAVCIS,ioos:station:WAVCIS:CSI09:1,2008-09-03T15:00:00Z,29.1015,-89.9782,0.0,8.25,144.0,,'11111222,11111222,99999999' 
WAVCIS,ioos:station:WAVCIS:CSI09:1,2008-09-03T16:00:00Z,29.1015,-89.9782,0.0,7.32,142.0,,'11111222,11111222,99999999' 
WAVCIS,ioos:station:WAVCIS:CSI09:1,2008-09-03T17:00:00Z,29.1015,-89.9782,0.0,7.42,138.0,,'11111222,11111222,99999999' 
WAVCIS,ioos:station:WAVCIS:CSI09:1,2008-09-03T18:00:00Z,29.1015,-89.9782,0.0,7.49,139.0,,'11111222,11111222,99999999' 
WAVCIS,ioos:station:WAVCIS:CSI09:1,2008-09-03T19:00:00Z,29.1015,-89.9782,0.0,7.38,137.0,,'11111222,11111222,99999999' 
WAVCIS,ioos:station:WAVCIS:CSI09:1,2008-09-03T20:00:00Z,29.1015,-89.9782,0.0,8.06,141.0,,'11111222,11111222,99999999' 
WAVCIS,ioos:station:WAVCIS:CSI09:1,2008-09-03T21:00:00Z,29.1015,-89.9782,0.0,7.36,145.0,,'11111222,11111222,99999999' 
WAVCIS,ioos:station:WAVCIS:CSI09:1,2008-09-03T22:00:00Z,29.1015,-89.9782,0.0,7.57,146.0,,'11111222,11111222,99999999' 
WAVCIS,ioos:station:WAVCIS:CSI09:1,2008-09-03T23:00:00Z,29.1015,-89.9782,0.0,7.29,149.0,,'11111222,11111222,99999999' 
WAVCIS,ioos:station:WAVCIS:CSI09:1,2008-09-04T00:00:00Z,29.1015,-89.9782,0.0,7.39,144.0,,'11111222,11111222,99999999' 
WAVCIS,ioos:station:WAVCIS:CSI09:1,2008-09-04T01:00:00Z,29.1015,-89.9782,0.0,7.41,140.0,,'11111222,11111222,99999999' 
WAVCIS,ioos:station:WAVCIS:CSI09:1,2008-09-04T02:00:00Z,29.1015,-89.9782,0.0,7.27,147.0,,'11111222,11111222,99999999' 
WAVCIS,ioos:station:WAVCIS:CSI09:1,2008-09-04T03:00:00Z,29.1015,-89.9782,0.0,6.699,154.0,,'11111222,11111222,99999999' 
WAVCIS,ioos:station:WAVCIS:CSI09:1,2008-09-04T04:00:00Z,29.1015,-89.9782,0.0,7.63,142.0,,'11111222,11111222,99999999' 
WAVCIS,ioos:station:WAVCIS:CSI09:1,2008-09-04T05:00:00Z,29.1015,-89.9782,0.0,7.93,142.0,,'11111222,11111222,99999999' 
WAVCIS,ioos:station:WAVCIS:CSI09:1,2008-09-04T06:00:00Z,29.1015,-89.9782,0.0,8.97,146.0,,'11111222,11111222,99999999' 
WAVCIS,ioos:station:WAVCIS:CSI09:1,2008-09-04T07:00:00Z,29.1015,-89.9782,0.0,7.96,154.0,,'11111222,11111222,99999999' 
WAVCIS,ioos:station:WAVCIS:CSI09:1,2008-09-04T08:00:00Z,29.1015,-89.9782,0.0,7.52,157.0,,'11111222,11111222,99999999' 
WAVCIS,ioos:station:WAVCIS:CSI09:1,2008-09-04T09:00:00Z,29.1015,-89.9782,0.0,6.032,163.0,,'11111222,11111222,99999999' 
WAVCIS,ioos:station:WAVCIS:CSI09:1,2008-09-04T10:00:00Z,29.1015,-89.9782,0.0,4.764,161.0,,'11111222,11111222,99999999' 
WAVCIS,ioos:station:WAVCIS:CSI09:1,2008-09-04T11:00:00Z,29.1015,-89.9782,0.0,5.063,155.0,,'11111222,11111222,99999999' 
WAVCIS,ioos:station:WAVCIS:CSI09:1,2008-09-04T12:00:00Z,29.1015,-89.9782,0.0,4.512,172.0,,'11111222,11111222,99999999' 
WAVCIS,ioos:station:WAVCIS:CSI09:1,2008-09-04T13:00:00Z,29.1015,-89.9782,0.0,4.285,164.0,,'11111222,11111222,99999999' 
WAVCIS,ioos:station:WAVCIS:CSI09:1,2008-09-04T14:00:00Z,29.1015,-89.9782,0.0,5.636,179.0,,'11111222,11111222,99999999' 
WAVCIS,ioos:station:WAVCIS:CSI09:1,2008-09-04T15:00:00Z,29.1015,-89.9782,0.0,5.182,178.0,,'11111222,11111222,99999999' 
WAVCIS,ioos:station:WAVCIS:CSI09:1,2008-09-04T16:00:00Z,29.1015,-89.9782,0.0,4.722,166.0,,'11111222,11111222,99999999' 
WAVCIS,ioos:station:WAVCIS:CSI09:1,2008-09-04T17:00:00Z,29.1015,-89.9782,0.0,4.537,166.0,,'11111222,11111222,99999999' 
WAVCIS,ioos:station:WAVCIS:CSI09:1,2008-09-04T18:00:00Z,29.1015,-89.9782,0.0,3.984,181.0,,'11111222,11111222,99999999' 
WAVCIS,ioos:station:WAVCIS:CSI09:1,2008-09-04T19:00:00Z,29.1015,-89.9782,0.0,5.46,178.0,,'11111222,11111222,99999999' 
WAVCIS,ioos:station:WAVCIS:CSI09:1,2008-09-04T20:00:00Z,29.1015,-89.9782,0.0,5.074,177.0,,'11111222,11111222,99999999' 
WAVCIS,ioos:station:WAVCIS:CSI09:1,2008-09-04T21:00:00Z,29.1015,-89.9782,0.0,4.369,169.0,,'11111222,11111222,99999999' 
WAVCIS,ioos:station:WAVCIS:CSI09:1,2008-09-04T22:00:00Z,29.1015,-89.9782,0.0,4.971,162.0,,'11111222,11111222,99999999' 
WAVCIS,ioos:station:WAVCIS:CSI09:1,2008-09-04T23:00:00Z,29.1015,-89.9782,0.0,4.466,184.0,,'11111222,11111222,99999999' 
WAVCIS,ioos:station:WAVCIS:CSI09:1,2008-09-05T00:00:00Z,29.1015,-89.9782,0.0,5.802,174.0,,'11111222,11111222,99999999' 
WAVCIS,ioos:station:WAVCIS:CSI09:1,2008-09-05T01:00:00Z,29.1015,-89.9782,0.0,4.02,188.0,,'11111222,11111222,99999999' 
WAVCIS,ioos:station:WAVCIS:CSI09:1,2008-09-05T02:00:00Z,29.1015,-89.9782,0.0,4.196,180.0,,'11111222,11111222,99999999' 
WAVCIS,ioos:station:WAVCIS:CSI09:1,2008-09-05T03:00:00Z,29.1015,-89.9782,0.0,3.914,180.0,,'11111222,11111222,99999999' 
WAVCIS,ioos:station:WAVCIS:CSI09:1,2008-09-05T04:00:00Z,29.1015,-89.9782,0.0,3.693,177.0,,'11111222,11111222,99999999' 
WAVCIS,ioos:station:WAVCIS:CSI09:1,2008-09-05T05:00:00Z,29.1015,-89.9782,0.0,2.861,183.0,,'11111222,11111222,99999999' 
WAVCIS,ioos:station:WAVCIS:CSI09:1,2008-09-05T06:00:00Z,29.1015,-89.9782,0.0,5.369,164.0,,'11111222,11111222,99999999' 
WAVCIS,ioos:station:WAVCIS:CSI09:1,2008-09-05T07:00:00Z,29.1015,-89.9782,0.0,2.592,192.0,,'11111222,11111222,99999999' 
WAVCIS,ioos:station:WAVCIS:CSI09:1,2008-09-05T08:00:00Z,29.1015,-89.9782,0.0,2.946,208.0,,'11111222,11111222,99999999' 
WAVCIS,ioos:station:WAVCIS:CSI09:1,2008-09-05T09:00:00Z,29.1015,-89.9782,0.0,3.951,223.0,,'11111222,11111222,99999999' 
WAVCIS,ioos:station:WAVCIS:CSI09:1,2008-09-05T10:00:00Z,29.1015,-89.9782,0.0,4.185,225.0,,'11111222,11111222,99999999' 
WAVCIS,ioos:station:WAVCIS:CSI09:1,2008-09-05T11:00:00Z,29.1015,-89.9782,0.0,2.109,215.0,,'11111222,11111222,99999999' 
WAVCIS,ioos:station:WAVCIS:CSI09:1,2008-09-05T12:00:00Z,29.1015,-89.9782,0.0,6.018,316.0,,'11111222,11111222,99999999' 
WAVCIS,ioos:station:WAVCIS:CSI09:1,2008-09-05T13:00:00Z,29.1015,-89.9782,0.0,6.13,336.0,,'11111222,11111222,99999999' 
WAVCIS,ioos:station:WAVCIS:CSI09:1,2008-09-05T14:00:00Z,29.1015,-89.9782,0.0,4.895,329.0,,'11111222,11111222,99999999' 
WAVCIS,ioos:station:WAVCIS:CSI09:1,2008-09-05T15:00:00Z,29.1015,-89.9782,0.0,3.709,344.0,,'11111222,11111222,99999999' 
WAVCIS,ioos:station:WAVCIS:CSI09:1,2008-09-05T16:00:00Z,29.1015,-89.9782,0.0,2.669,348.0,,'11111222,11111222,99999999' 
WAVCIS,ioos:station:WAVCIS:CSI09:1,2008-09-05T17:00:00Z,29.1015,-89.9782,0.0,1.826,0.0,,'11111222,11111222,99999999' 
WAVCIS,ioos:station:WAVCIS:CSI09:1,2008-09-05T18:00:00Z,29.1015,-89.9782,0.0,1.06,334.0,,'11111222,11111222,99999999' 
WAVCIS,ioos:station:WAVCIS:CSI09:1,2008-09-05T19:00:00Z,29.1015,-89.9782,0.0,1.874,251.0,,'11111222,11111222,99999999' 
WAVCIS,ioos:station:WAVCIS:CSI09:1,2008-09-05T20:00:00Z,29.1015,-89.9782,0.0,4.025,232.0,,'11111222,11111222,99999999' 
WAVCIS,ioos:station:WAVCIS:CSI09:1,2008-09-05T21:00:00Z,29.1015,-89.9782,0.0,3.738,240.0,,'11111222,11111222,99999999' 
WAVCIS,ioos:station:WAVCIS:CSI09:1,2008-09-05T22:00:00Z,29.1015,-89.9782,0.0,3.861,243.0,,'11111222,11111222,99999999' 
WAVCIS,ioos:station:WAVCIS:CSI09:1,2008-09-05T23:00:00Z,29.1015,-89.9782,0.0,5.311,259.0,,'11111222,11111222,99999999' 
WAVCIS,ioos:station:WAVCIS:CSI09:1,2008-09-06T00:00:00Z,29.1015,-89.9782,0.0,5.493,264.0,,'11111222,11111222,99999999' 
WAVCIS,ioos:station:WAVCIS:CSI09:1,2008-09-06T01:00:00Z,29.1015,-89.9782,0.0,5.915,260.0,,'11111222,11111222,99999999' 
WAVCIS,ioos:station:WAVCIS:CSI09:1,2008-09-06T02:00:00Z,29.1015,-89.9782,0.0,5.194,245.0,,'11111222,11111222,99999999' 
WAVCIS,ioos:station:WAVCIS:CSI09:1,2008-09-06T03:00:00Z,29.1015,-89.9782,0.0,6.019,242.0,,'11111222,11111222,99999999' 
WAVCIS,ioos:station:WAVCIS:CSI09:1,2008-09-06T04:00:00Z,29.1015,-89.9782,0.0,5.403,233.0,,'11111222,11111222,99999999' 
WAVCIS,ioos:station:WAVCIS:CSI09:1,2008-09-06T05:00:00Z,29.1015,-89.9782,0.0,5.614,346.0,,'11111222,11111222,99999999' 
WAVCIS,ioos:station:WAVCIS:CSI09:1,2008-09-06T06:00:00Z,29.1015,-89.9782,0.0,6.385,347.0,,'11111222,11111222,99999999' 
WAVCIS,ioos:station:WAVCIS:CSI09:1,2008-09-06T07:00:00Z,29.1015,-89.9782,0.0,5.805,348.0,,'11111222,11111222,99999999' 
WAVCIS,ioos:station:WAVCIS:CSI09:1,2008-09-06T08:00:00Z,29.1015,-89.9782,0.0,5.785,344.0,,'11111222,11111222,99999999' 
WAVCIS,ioos:station:WAVCIS:CSI09:1,2008-09-06T09:00:00Z,29.1015,-89.9782,0.0,5.578,346.0,,'11111222,11111222,99999999' 
WAVCIS,ioos:station:WAVCIS:CSI09:1,2008-09-06T10:00:00Z,29.1015,-89.9782,0.0,5.288,1.0,,'11111222,11111222,99999999' 
WAVCIS,ioos:station:WAVCIS:CSI09:1,2008-09-06T11:00:00Z,29.1015,-89.9782,0.0,4.563,357.0,,'11111222,11111222,99999999' 
WAVCIS,ioos:station:WAVCIS:CSI09:1,2008-09-06T12:00:00Z,29.1015,-89.9782,0.0,4.212,7.0,,'11111222,11111222,99999999' 
WAVCIS,ioos:station:WAVCIS:CSI09:1,2008-09-06T13:00:00Z,29.1015,-89.9782,0.0,3.226,29.0,,'11111222,11111222,99999999' 
WAVCIS,ioos:station:WAVCIS:CSI09:1,2008-09-06T14:00:00Z,29.1015,-89.9782,0.0,2.527,354.0,,'11111222,11111222,99999999' 
WAVCIS,ioos:station:WAVCIS:CSI09:1,2008-09-06T15:00:00Z,29.1015,-89.9782,0.0,3.488,333.0,,'11111222,11111222,99999999' 
WAVCIS,ioos:station:WAVCIS:CSI09:1,2008-09-06T16:00:00Z,29.1015,-89.9782,0.0,2.557,330.0,,'11111222,11111222,99999999' 
WAVCIS,ioos:station:WAVCIS:CSI09:1,2008-09-06T17:00:00Z,29.1015,-89.9782,0.0,1.409,320.0,,'11111222,11111222,99999999' 
WAVCIS,ioos:station:WAVCIS:CSI09:1,2008-09-06T18:00:00Z,29.1015,-89.9782,0.0,1.544,283.0,,'11111222,11111222,99999999' 
WAVCIS,ioos:station:WAVCIS:CSI09:1,2008-09-06T19:00:00Z,29.1015,-89.9782,0.0,1.43,258.0,,'11111222,11111222,99999999' 
WAVCIS,ioos:station:WAVCIS:CSI09:1,2008-09-06T20:00:00Z,29.1015,-89.9782,0.0,2.015,252.0,,'11111222,11111222,99999999' 
WAVCIS,ioos:station:WAVCIS:CSI09:1,2008-09-06T21:00:00Z,29.1015,-89.9782,0.0,2.683,245.0,,'11111222,11111222,99999999' 
WAVCIS,ioos:station:WAVCIS:CSI09:1,2008-09-06T22:00:00Z,29.1015,-89.9782,0.0,2.496,229.0,,'11111222,11111222,99999999' 
WAVCIS,ioos:station:WAVCIS:CSI09:1,2008-09-06T23:00:00Z,29.1015,-89.9782,0.0,1.528,196.0,,'11111222,11111222,99999999' 
WAVCIS,ioos:station:WAVCIS:CSI09:1,2008-09-07T00:00:00Z,29.1015,-89.9782,0.0,1.766,213.0,,'11111222,11111222,99999999' 
WAVCIS,ioos:station:WAVCIS:CSI09:1,2008-09-07T01:00:00Z,29.1015,-89.9782,0.0,3.079,246.0,,'11111222,11111222,99999999' 
WAVCIS,ioos:station:WAVCIS:CSI09:1,2008-09-07T02:00:00Z,29.1015,-89.9782,0.0,3.037,271.0,,'11111222,11111222,99999999' 
WAVCIS,ioos:station:WAVCIS:CSI09:1,2008-09-07T03:00:00Z,29.1015,-89.9782,0.0,2.981,341.0,,'11111222,11111222,99999999' 
WAVCIS,ioos:station:WAVCIS:CSI09:1,2008-09-07T04:00:00Z,29.1015,-89.9782,0.0,2.723,356.0,,'11111222,11111222,99999999' 
WAVCIS,ioos:station:WAVCIS:CSI09:1,2008-09-07T05:00:00Z,29.1015,-89.9782,0.0,2.304,27.0,,'11111222,11111222,99999999' 
WAVCIS,ioos:station:WAVCIS:CSI09:1,2008-09-07T06:00:00Z,29.1015,-89.9782,0.0,1.511,24.0,,'11111222,11111222,99999999' 
WAVCIS,ioos:station:WAVCIS:CSI09:1,2008-09-07T07:00:00Z,29.1015,-89.9782,0.0,0.911,25.0,,'11111222,11111222,99999999' 
WAVCIS,ioos:station:WAVCIS:CSI09:1,2008-09-07T08:00:00Z,29.1015,-89.9782,0.0,2.651,35.0,,'11111222,11111222,99999999' 
WAVCIS,ioos:station:WAVCIS:CSI09:1,2008-09-07T09:00:00Z,29.1015,-89.9782,0.0,3.334,41.0,,'11111222,11111222,99999999' 
WAVCIS,ioos:station:WAVCIS:CSI09:1,2008-09-07T10:00:00Z,29.1015,-89.9782,0.0,3.203,41.0,,'11111222,11111222,99999999' 
WAVCIS,ioos:station:WAVCIS:CSI09:1,2008-09-07T11:00:00Z,29.1015,-89.9782,0.0,2.642,45.0,,'11111222,11111222,99999999' 
WAVCIS,ioos:station:WAVCIS:CSI09:1,2008-09-07T12:00:00Z,29.1015,-89.9782,0.0,2.388,56.0,,'11111222,11111222,99999999' 
WAVCIS,ioos:station:WAVCIS:CSI09:1,2008-09-07T13:00:00Z,29.1015,-89.9782,0.0,2.893,29.0,,'11111222,11111222,99999999' 
WAVCIS,ioos:station:WAVCIS:CSI09:1,2008-09-07T14:00:00Z,29.1015,-89.9782,0.0,2.748,67.0,,'11111222,11111222,99999999' 
WAVCIS,ioos:station:WAVCIS:CSI09:1,2008-09-07T15:00:00Z,29.1015,-89.9782,0.0,3.429,68.0,,'11111222,11111222,99999999' 
WAVCIS,ioos:station:WAVCIS:CSI09:1,2008-09-07T16:00:00Z,29.1015,-89.9782,0.0,3.302,61.0,,'11111222,11111222,99999999' 
WAVCIS,ioos:station:WAVCIS:CSI09:1,2008-09-07T17:00:00Z,29.1015,-89.9782,0.0,3.347,90.0,,'11111222,11111222,99999999' 
WAVCIS,ioos:station:WAVCIS:CSI09:1,2008-09-07T18:00:00Z,29.1015,-89.9782,0.0,2.881,100.0,,'11111222,11111222,99999999' 
WAVCIS,ioos:station:WAVCIS:CSI09:1,2008-09-07T19:00:00Z,29.1015,-89.9782,0.0,2.984,110.0,,'11111222,11111222,99999999' 
WAVCIS,ioos:station:WAVCIS:CSI09:1,2008-09-07T20:00:00Z,29.1015,-89.9782,0.0,3.991,117.0,,'11111222,11111222,99999999' 
WAVCIS,ioos:station:WAVCIS:CSI09:1,2008-09-07T21:00:00Z,29.1015,-89.9782,0.0,4.6,120.0,,'11111222,11111222,99999999' 
WAVCIS,ioos:station:WAVCIS:CSI09:1,2008-09-07T22:00:00Z,29.1015,-89.9782,0.0,3.545,127.0,,'11111222,11111222,99999999' 
WAVCIS,ioos:station:WAVCIS:CSI09:1,2008-09-07T23:00:00Z,29.1015,-89.9782,0.0,3.411,117.0,,'11111222,11111222,99999999' 
WAVCIS,ioos:station:WAVCIS:CSI09:1,2008-09-08T00:00:00Z,29.1015,-89.9782,0.0,4.278,133.0,,'11111222,11111222,99999999' 
WAVCIS,ioos:station:WAVCIS:CSI09:1,2008-09-08T01:00:00Z,29.1015,-89.9782,0.0,3.62,128.0,,'11111222,11111222,99999999' 
WAVCIS,ioos:station:WAVCIS:CSI09:1,2008-09-08T02:00:00Z,29.1015,-89.9782,0.0,3.231,132.0,,'11111222,11111222,99999999' 
WAVCIS,ioos:station:WAVCIS:CSI09:1,2008-09-08T03:00:00Z,29.1015,-89.9782,0.0,2.987,115.0,,'11111222,11111222,99999999' 
WAVCIS,ioos:station:WAVCIS:CSI09:1,2008-09-08T04:00:00Z,29.1015,-89.9782,0.0,2.775,124.0,,'11111222,11111222,99999999' 
WAVCIS,ioos:station:WAVCIS:CSI09:1,2008-09-08T05:00:00Z,29.1015,-89.9782,0.0,2.547,103.0,,'11111222,11111222,99999999' 
WAVCIS,ioos:station:WAVCIS:CSI09:1,2008-09-08T06:00:00Z,29.1015,-89.9782,0.0,2.782,105.0,,'11111222,11111222,99999999' 
WAVCIS,ioos:station:WAVCIS:CSI09:1,2008-09-08T07:00:00Z,29.1015,-89.9782,0.0,2.871,77.0,,'11111222,11111222,99999999' 
WAVCIS,ioos:station:WAVCIS:CSI09:1,2008-09-08T08:00:00Z,29.1015,-89.9782,0.0,3.436,76.0,,'11111222,11111222,99999999' 
WAVCIS,ioos:station:WAVCIS:CSI09:1,2008-09-08T09:00:00Z,29.1015,-89.9782,0.0,3.52,77.0,,'11111222,11111222,99999999' 
WAVCIS,ioos:station:WAVCIS:CSI09:1,2008-09-08T10:00:00Z,29.1015,-89.9782,0.0,3.534,75.0,,'11111222,11111222,99999999' 
WAVCIS,ioos:station:WAVCIS:CSI09:1,2008-09-08T11:00:00Z,29.1015,-89.9782,0.0,3.97,78.0,,'11111222,11111222,99999999' 
WAVCIS,ioos:station:WAVCIS:CSI09:1,2008-09-08T12:00:00Z,29.1015,-89.9782,0.0,5.569,78.0,,'11111222,11111222,99999999' 
WAVCIS,ioos:station:WAVCIS:CSI09:1,2008-09-08T13:00:00Z,29.1015,-89.9782,0.0,5.456,74.0,,'11111222,11111222,99999999' 
WAVCIS,ioos:station:WAVCIS:CSI09:1,2008-09-08T14:00:00Z,29.1015,-89.9782,0.0,5.602,77.0,,'11111222,11111222,99999999' 
WAVCIS,ioos:station:WAVCIS:CSI09:1,2008-09-08T15:00:00Z,29.1015,-89.9782,0.0,5.925,73.0,,'11111222,11111222,99999999' 
WAVCIS,ioos:station:WAVCIS:CSI09:1,2008-09-08T16:00:00Z,29.1015,-89.9782,0.0,5.622,82.0,,'11111222,11111222,99999999' 
WAVCIS,ioos:station:WAVCIS:CSI09:1,2008-09-08T17:00:00Z,29.1015,-89.9782,0.0,5.446,84.0,,'11111222,11111222,99999999' 
WAVCIS,ioos:station:WAVCIS:CSI09:1,2008-09-08T18:00:00Z,29.1015,-89.9782,0.0,4.5,105.0,,'11111222,11111222,99999999' 
WAVCIS,ioos:station:WAVCIS:CSI09:1,2008-09-08T19:00:00Z,29.1015,-89.9782,0.0,4.404,108.0,,'11111222,11111222,99999999' 
WAVCIS,ioos:station:WAVCIS:CSI09:1,2008-09-08T20:00:00Z,29.1015,-89.9782,0.0,4.291,120.0,,'11111222,11111222,99999999' 
WAVCIS,ioos:station:WAVCIS:CSI09:1,2008-09-08T21:00:00Z,29.1015,-89.9782,0.0,3.859,130.0,,'11111222,11111222,99999999' 
WAVCIS,ioos:station:WAVCIS:CSI09:1,2008-09-08T22:00:00Z,29.1015,-89.9782,0.0,3.362,126.0,,'11111222,11111222,99999999' 
WAVCIS,ioos:station:WAVCIS:CSI09:1,2008-09-08T23:00:00Z,29.1015,-89.9782,0.0,3.875,136.0,,'11111222,11111222,99999999' 
WAVCIS,ioos:station:WAVCIS:CSI09:1,2008-09-09T00:00:00Z,29.1015,-89.9782,0.0,4.27,144.0,,'11111222,11111222,99999999' 
WAVCIS,ioos:station:WAVCIS:CSI09:1,2008-09-09T01:00:00Z,29.1015,-89.9782,0.0,2.881,139.0,,'11111222,11111222,99999999' 
WAVCIS,ioos:station:WAVCIS:CSI09:1,2008-09-09T02:00:00Z,29.1015,-89.9782,0.0,2.921,133.0,,'11111222,11111222,99999999' 
WAVCIS,ioos:station:WAVCIS:CSI09:1,2008-09-09T03:00:00Z,29.1015,-89.9782,0.0,2.755,89.0,,'11111222,11111222,99999999' 
WAVCIS,ioos:station:WAVCIS:CSI09:1,2008-09-09T04:00:00Z,29.1015,-89.9782,0.0,2.767,96.0,,'11111222,11111222,99999999' 
WAVCIS,ioos:station:WAVCIS:CSI09:1,2008-09-09T05:00:00Z,29.1015,-89.9782,0.0,4.513,82.0,,'11111222,11111222,99999999' 
WAVCIS,ioos:station:WAVCIS:CSI09:1,2008-09-09T06:00:00Z,29.1015,-89.9782,0.0,5.005,87.0,,'11111222,11111222,99999999' 
WAVCIS,ioos:station:WAVCIS:CSI09:1,2008-09-09T07:00:00Z,29.1015,-89.9782,0.0,4.979,77.0,,'11111222,11111222,99999999' 
WAVCIS,ioos:station:WAVCIS:CSI09:1,2008-09-09T08:00:00Z,29.1015,-89.9782,0.0,6.23,76.0,,'11111222,11111222,99999999' 